Year,Month,Day,Hour,Minute,Value (Times are PST for temperature in C)
2006,09,24,00,00,10.40
2006,09,24,00,01,10.40
2006,09,24,00,02,10.40
2006,09,24,00,03,10.40
2006,09,24,00,04,10.40
2006,09,24,00,05,10.40
2006,09,24,00,06,10.40
2006,09,24,00,07,10.30
2006,09,24,00,08,10.30
2006,09,24,00,09,10.30
2006,09,24,00,10,10.30
2006,09,24,00,11,10.30
2006,09,24,00,12,10.30
2006,09,24,00,13,10.30
2006,09,24,00,14,10.30
2006,09,24,00,15,10.20
2006,09,24,00,16,10.20
2006,09,24,00,17,10.20
2006,09,24,00,18,10.20
2006,09,24,00,19,10.20
2006,09,24,00,20,10.20
2006,09,24,00,21,10.20
2006,09,24,00,22,10.20
2006,09,24,00,23,10.20
2006,09,24,00,24,10.20
2006,09,24,00,25,10.20
2006,09,24,00,26,10.20
2006,09,24,00,27,10.20
2006,09,24,00,28,10.20
2006,09,24,00,29,10.20
2006,09,24,00,30,10.20
2006,09,24,00,31,10.20
2006,09,24,00,32,10.10
2006,09,24,00,33,10.10
2006,09,24,00,34,10.10
2006,09,24,00,35,10.10
2006,09,24,00,36,10.10
2006,09,24,00,37,10.10
2006,09,24,00,38,10.10
2006,09,24,00,39,10.10
2006,09,24,00,40,10.10
2006,09,24,00,41,9.90
2006,09,24,00,42,9.90
2006,09,24,00,43,9.90
2006,09,24,00,44,9.90
2006,09,24,00,45,9.90
2006,09,24,00,46,9.90
2006,09,24,00,47,9.90
2006,09,24,00,48,9.90
2006,09,24,00,49,9.90
2006,09,24,00,50,9.90
2006,09,24,00,51,9.90
2006,09,24,00,52,9.90
2006,09,24,00,53,9.90
2006,09,24,00,54,9.90
2006,09,24,00,55,9.90
2006,09,24,00,56,9.90
2006,09,24,00,57,9.90
2006,09,24,00,58,9.80
2006,09,24,00,59,9.80
2006,09,24,01,00,9.80
2006,09,24,01,01,9.80
2006,09,24,01,02,9.80
2006,09,24,01,03,9.80
2006,09,24,01,04,9.70
2006,09,24,01,05,9.70
2006,09,24,01,06,9.70
2006,09,24,01,07,9.70
2006,09,24,01,08,9.70
2006,09,24,01,09,9.70
2006,09,24,01,10,9.70
2006,09,24,01,11,9.70
2006,09,24,01,12,9.70
2006,09,24,01,13,9.70
2006,09,24,01,14,9.70
2006,09,24,01,15,9.70
2006,09,24,01,16,9.70
2006,09,24,01,17,9.70
2006,09,24,01,18,9.70
2006,09,24,01,19,9.70
2006,09,24,01,20,9.70
2006,09,24,01,21,9.70
2006,09,24,01,22,9.70
2006,09,24,01,23,9.60
2006,09,24,01,24,9.60
2006,09,24,01,25,9.60
2006,09,24,01,26,9.60
2006,09,24,01,27,9.60
2006,09,24,01,28,9.50
2006,09,24,01,29,9.50
2006,09,24,01,30,9.50
2006,09,24,01,31,9.50
2006,09,24,01,32,9.50
2006,09,24,01,33,9.50
2006,09,24,01,34,9.50
2006,09,24,01,35,9.50
2006,09,24,01,36,9.50
2006,09,24,01,37,9.50
2006,09,24,01,38,9.50
2006,09,24,01,39,9.50
2006,09,24,01,40,9.50
2006,09,24,01,41,9.50
2006,09,24,01,42,9.50
2006,09,24,01,43,9.50
2006,09,24,01,44,9.40
2006,09,24,01,45,9.40
2006,09,24,01,46,9.40
2006,09,24,01,47,9.40
2006,09,24,01,48,9.30
2006,09,24,01,49,9.30
2006,09,24,01,50,9.30
2006,09,24,01,51,9.30
2006,09,24,01,52,9.30
2006,09,24,01,53,9.30
2006,09,24,01,54,9.20
2006,09,24,01,55,9.20
2006,09,24,01,56,9.20
2006,09,24,01,57,9.20
2006,09,24,01,58,9.20
2006,09,24,01,59,9.20
2006,09,24,02,00,9.20
2006,09,24,02,01,9.20
2006,09,24,02,02,9.20
2006,09,24,02,03,9.20
2006,09,24,02,04,9.20
2006,09,24,02,05,9.20
2006,09,24,02,06,9.30
2006,09,24,02,07,9.30
2006,09,24,02,08,9.30
2006,09,24,02,09,9.30
2006,09,24,02,10,9.30
2006,09,24,02,11,9.30
2006,09,24,02,12,9.30
2006,09,24,02,13,9.30
2006,09,24,02,14,9.30
2006,09,24,02,15,9.30
2006,09,24,02,16,9.20
2006,09,24,02,17,9.20
2006,09,24,02,18,9.20
2006,09,24,02,19,9.20
2006,09,24,02,20,9.20
2006,09,24,02,21,9.20
2006,09,24,02,22,9.20
2006,09,24,02,23,9.20
2006,09,24,02,24,9.10
2006,09,24,02,25,9.10
2006,09,24,02,26,9.10
2006,09,24,02,27,9.10
2006,09,24,02,28,9.10
2006,09,24,02,29,9.00
2006,09,24,02,30,9.00
2006,09,24,02,31,9.00
2006,09,24,02,32,9.00
2006,09,24,02,33,9.00
2006,09,24,02,34,9.00
2006,09,24,02,35,9.00
2006,09,24,02,36,9.00
2006,09,24,02,37,9.00
2006,09,24,02,38,9.10
2006,09,24,02,39,9.10
2006,09,24,02,40,9.10
2006,09,24,02,41,9.10
2006,09,24,02,42,9.10
2006,09,24,02,43,9.00
2006,09,24,02,44,9.00
2006,09,24,02,45,9.00
2006,09,24,02,46,9.00
2006,09,24,02,47,9.00
2006,09,24,02,48,8.90
2006,09,24,02,49,8.90
2006,09,24,02,50,8.90
2006,09,24,02,51,8.90
2006,09,24,02,52,8.90
2006,09,24,02,53,8.90
2006,09,24,02,54,8.80
2006,09,24,02,55,8.80
2006,09,24,02,56,8.80
2006,09,24,02,57,8.80
2006,09,24,02,58,8.80
2006,09,24,02,59,8.80
2006,09,24,03,00,8.80
2006,09,24,03,01,8.90
2006,09,24,03,02,8.90
2006,09,24,03,03,8.80
2006,09,24,03,04,8.80
2006,09,24,03,05,8.80
2006,09,24,03,06,8.80
2006,09,24,03,07,8.80
2006,09,24,03,08,8.80
2006,09,24,03,09,8.80
2006,09,24,03,10,8.70
2006,09,24,03,11,8.70
2006,09,24,03,12,8.80
2006,09,24,03,13,8.80
2006,09,24,03,14,8.70
2006,09,24,03,15,8.70
2006,09,24,03,16,8.70
2006,09,24,03,17,8.70
2006,09,24,03,18,8.70
2006,09,24,03,19,8.70
2006,09,24,03,20,8.70
2006,09,24,03,21,8.70
2006,09,24,03,22,8.70
2006,09,24,03,23,8.70
2006,09,24,03,24,8.70
2006,09,24,03,25,8.70
2006,09,24,03,26,8.70
2006,09,24,03,27,8.70
2006,09,24,03,28,8.70
2006,09,24,03,29,8.70
2006,09,24,03,30,8.70
2006,09,24,03,31,8.70
2006,09,24,03,32,8.70
2006,09,24,03,33,8.70
2006,09,24,03,34,8.70
2006,09,24,03,35,8.70
2006,09,24,03,36,8.70
2006,09,24,03,37,8.70
2006,09,24,03,38,8.70
2006,09,24,03,39,8.70
2006,09,24,03,40,8.70
2006,09,24,03,41,8.70
2006,09,24,03,42,8.70
2006,09,24,03,43,8.70
2006,09,24,03,44,8.70
2006,09,24,03,45,8.70
2006,09,24,03,46,8.70
2006,09,24,03,47,8.70
2006,09,24,03,48,8.60
2006,09,24,03,49,8.60
2006,09,24,03,50,8.60
2006,09,24,03,51,8.50
2006,09,24,03,52,8.50
2006,09,24,03,53,8.40
2006,09,24,03,54,8.40
2006,09,24,03,55,8.50
2006,09,24,03,56,8.50
2006,09,24,03,57,8.50
2006,09,24,03,58,8.50
2006,09,24,03,59,8.50
2006,09,24,04,00,8.50
2006,09,24,04,01,8.50
2006,09,24,04,02,8.50
2006,09,24,04,03,8.50
2006,09,24,04,04,8.50
2006,09,24,04,05,8.50
2006,09,24,04,06,8.50
2006,09,24,04,07,8.50
2006,09,24,04,08,8.50
2006,09,24,04,09,8.50
2006,09,24,04,10,8.50
2006,09,24,04,11,8.50
2006,09,24,04,12,8.50
2006,09,24,04,13,8.50
2006,09,24,04,14,8.50
2006,09,24,04,15,8.50
2006,09,24,04,16,8.50
2006,09,24,04,17,8.40
2006,09,24,04,18,8.40
2006,09,24,04,19,8.40
2006,09,24,04,20,8.40
2006,09,24,04,21,8.40
2006,09,24,04,22,8.40
2006,09,24,04,23,8.40
2006,09,24,04,24,8.40
2006,09,24,04,25,8.40
2006,09,24,04,26,8.40
2006,09,24,04,27,8.40
2006,09,24,04,28,8.40
2006,09,24,04,29,8.40
2006,09,24,04,30,8.40
2006,09,24,04,31,8.30
2006,09,24,04,32,8.30
2006,09,24,04,33,8.30
2006,09,24,04,34,8.30
2006,09,24,04,35,8.30
2006,09,24,04,36,8.30
2006,09,24,04,37,8.30
2006,09,24,04,38,8.30
2006,09,24,04,39,8.30
2006,09,24,04,40,8.30
2006,09,24,04,41,8.30
2006,09,24,04,42,8.30
2006,09,24,04,43,8.30
2006,09,24,04,44,8.30
2006,09,24,04,45,8.30
2006,09,24,04,46,8.30
2006,09,24,04,47,8.20
2006,09,24,04,48,8.20
2006,09,24,04,49,8.20
2006,09,24,04,50,8.20
2006,09,24,04,51,8.20
2006,09,24,04,52,8.20
2006,09,24,04,53,8.20
2006,09,24,04,54,8.20
2006,09,24,04,55,8.30
2006,09,24,04,56,8.40
2006,09,24,04,57,8.40
2006,09,24,04,58,8.50
2006,09,24,04,59,8.50
2006,09,24,05,00,8.60
2006,09,24,05,01,8.60
2006,09,24,05,02,8.60
2006,09,24,05,03,8.60
2006,09,24,05,04,8.60
2006,09,24,05,05,8.60
2006,09,24,05,06,8.60
2006,09,24,05,07,8.50
2006,09,24,05,08,8.50
2006,09,24,05,09,8.40
2006,09,24,05,10,8.40
2006,09,24,05,11,8.40
2006,09,24,05,12,8.30
2006,09,24,05,13,8.30
2006,09,24,05,14,8.30
2006,09,24,05,15,8.30
2006,09,24,05,16,8.30
2006,09,24,05,17,8.30
2006,09,24,05,18,8.30
2006,09,24,05,19,8.30
2006,09,24,05,20,8.30
2006,09,24,05,21,8.30
2006,09,24,05,22,8.30
2006,09,24,05,23,8.30
2006,09,24,05,24,8.30
2006,09,24,05,25,8.30
2006,09,24,05,26,8.30
2006,09,24,05,27,8.20
2006,09,24,05,28,8.20
2006,09,24,05,29,8.30
2006,09,24,05,30,8.30
2006,09,24,05,31,8.30
2006,09,24,05,32,8.30
2006,09,24,05,33,8.30
2006,09,24,05,34,8.30
2006,09,24,05,35,8.30
2006,09,24,05,36,8.30
2006,09,24,05,37,8.20
2006,09,24,05,38,8.20
2006,09,24,05,39,8.20
2006,09,24,05,40,8.20
2006,09,24,05,41,8.20
2006,09,24,05,42,8.20
2006,09,24,05,43,8.20
2006,09,24,05,44,8.20
2006,09,24,05,45,8.20
2006,09,24,05,46,8.20
2006,09,24,05,47,8.20
2006,09,24,05,48,8.20
2006,09,24,05,49,8.20
2006,09,24,05,50,8.30
2006,09,24,05,51,8.30
2006,09,24,05,52,8.30
2006,09,24,05,53,8.40
2006,09,24,05,54,8.40
2006,09,24,05,55,8.40
2006,09,24,05,56,8.40
2006,09,24,05,57,8.40
2006,09,24,05,58,8.30
2006,09,24,05,59,8.30
2006,09,24,06,00,8.30
2006,09,24,06,01,8.30
2006,09,24,06,02,8.20
2006,09,24,06,03,8.20
2006,09,24,06,04,8.20
2006,09,24,06,05,8.20
2006,09,24,06,06,8.20
2006,09,24,06,07,8.30
2006,09,24,06,08,8.30
2006,09,24,06,09,8.40
2006,09,24,06,10,8.50
2006,09,24,06,11,8.50
2006,09,24,06,12,8.60
2006,09,24,06,13,8.60
2006,09,24,06,14,8.70
2006,09,24,06,15,8.70
2006,09,24,06,16,8.70
2006,09,24,06,17,8.70
2006,09,24,06,18,8.70
2006,09,24,06,19,8.70
2006,09,24,06,20,8.80
2006,09,24,06,21,8.80
2006,09,24,06,22,8.90
2006,09,24,06,23,8.90
2006,09,24,06,24,9.00
2006,09,24,06,25,9.10
2006,09,24,06,26,9.20
2006,09,24,06,27,9.20
2006,09,24,06,28,9.20
2006,09,24,06,29,9.20
2006,09,24,06,30,9.30
2006,09,24,06,31,9.30
2006,09,24,06,32,9.30
2006,09,24,06,33,9.30
2006,09,24,06,34,9.30
2006,09,24,06,35,9.30
2006,09,24,06,36,9.30
2006,09,24,06,37,9.30
2006,09,24,06,38,9.30
2006,09,24,06,39,9.30
2006,09,24,06,40,9.30
2006,09,24,06,41,9.30
2006,09,24,06,42,9.30
2006,09,24,06,43,9.30
2006,09,24,06,44,9.30
2006,09,24,06,45,9.30
2006,09,24,06,46,9.30
2006,09,24,06,47,9.30
2006,09,24,06,48,9.30
2006,09,24,06,49,9.40
2006,09,24,06,50,9.40
2006,09,24,06,51,9.40
2006,09,24,06,52,9.40
2006,09,24,06,53,9.40
2006,09,24,06,54,9.40
2006,09,24,06,55,9.40
2006,09,24,06,56,9.40
2006,09,24,06,57,9.40
2006,09,24,06,58,9.40
2006,09,24,06,59,9.40
2006,09,24,07,00,9.50
2006,09,24,07,01,9.50
2006,09,24,07,02,9.50
2006,09,24,07,03,9.50
2006,09,24,07,04,9.50
2006,09,24,07,05,9.50
2006,09,24,07,06,9.50
2006,09,24,07,07,9.50
2006,09,24,07,08,9.50
2006,09,24,07,09,9.50
2006,09,24,07,10,9.50
2006,09,24,07,11,9.50
2006,09,24,07,12,9.60
2006,09,24,07,13,9.60
2006,09,24,07,14,9.60
2006,09,24,07,15,9.70
2006,09,24,07,16,9.70
2006,09,24,07,17,9.70
2006,09,24,07,18,9.70
2006,09,24,07,19,9.80
2006,09,24,07,20,9.90
2006,09,24,07,21,9.90
2006,09,24,07,22,10.00
2006,09,24,07,23,10.10
2006,09,24,07,24,10.10
2006,09,24,07,25,10.10
2006,09,24,07,26,10.20
2006,09,24,07,27,10.20
2006,09,24,07,28,10.30
2006,09,24,07,29,10.30
2006,09,24,07,30,10.40
2006,09,24,07,31,10.40
2006,09,24,07,32,10.40
2006,09,24,07,33,10.50
2006,09,24,07,34,10.60
2006,09,24,07,35,10.60
2006,09,24,07,36,10.60
2006,09,24,07,37,10.60
2006,09,24,07,38,10.70
2006,09,24,07,39,10.70
2006,09,24,07,40,10.70
2006,09,24,07,41,10.80
2006,09,24,07,42,10.80
2006,09,24,07,43,10.90
2006,09,24,07,44,10.90
2006,09,24,07,45,10.90
2006,09,24,07,46,11.00
2006,09,24,07,47,11.10
2006,09,24,07,48,11.10
2006,09,24,07,49,11.10
2006,09,24,07,50,11.10
2006,09,24,07,51,11.10
2006,09,24,07,52,11.20
2006,09,24,07,53,11.20
2006,09,24,07,54,11.30
2006,09,24,07,55,11.30
2006,09,24,07,56,11.40
2006,09,24,07,57,11.40
2006,09,24,07,58,11.40
2006,09,24,07,59,11.50
2006,09,24,08,00,11.60
2006,09,24,08,01,11.60
2006,09,24,08,02,11.60
2006,09,24,08,03,11.70
2006,09,24,08,04,11.70
2006,09,24,08,05,11.80
2006,09,24,08,06,11.80
2006,09,24,08,07,11.80
2006,09,24,08,08,11.90
2006,09,24,08,09,11.90
2006,09,24,08,10,12.00
2006,09,24,08,11,12.00
2006,09,24,08,12,12.00
2006,09,24,08,13,12.10
2006,09,24,08,14,12.20
2006,09,24,08,15,12.20
2006,09,24,08,16,12.30
2006,09,24,08,17,12.30
2006,09,24,08,18,12.40
2006,09,24,08,19,12.50
2006,09,24,08,20,12.50
2006,09,24,08,21,12.60
2006,09,24,08,22,12.60
2006,09,24,08,23,12.70
2006,09,24,08,24,12.80
2006,09,24,08,25,12.80
2006,09,24,08,26,12.90
2006,09,24,08,27,12.90
2006,09,24,08,28,13.00
2006,09,24,08,29,13.00
2006,09,24,08,30,13.10
2006,09,24,08,31,13.10
2006,09,24,08,32,13.20
2006,09,24,08,33,13.20
2006,09,24,08,34,13.30
2006,09,24,08,35,13.30
2006,09,24,08,36,13.30
2006,09,24,08,37,13.40
2006,09,24,08,38,13.40
2006,09,24,08,39,13.50
2006,09,24,08,40,13.50
2006,09,24,08,41,13.60
2006,09,24,08,42,13.60
2006,09,24,08,43,13.70
2006,09,24,08,44,13.70
2006,09,24,08,45,13.70
2006,09,24,08,46,13.80
2006,09,24,08,47,13.80
2006,09,24,08,48,13.90
2006,09,24,08,49,13.90
2006,09,24,08,50,13.90
2006,09,24,08,51,14.00
2006,09,24,08,52,14.10
2006,09,24,08,53,14.20
2006,09,24,08,54,14.20
2006,09,24,08,55,14.30
2006,09,24,08,56,14.40
2006,09,24,08,57,14.50
2006,09,24,08,58,14.50
2006,09,24,08,59,14.60
2006,09,24,09,00,14.70
2006,09,24,09,01,14.70
2006,09,24,09,02,14.80
2006,09,24,09,03,14.80
2006,09,24,09,04,14.80
2006,09,24,09,05,14.80
2006,09,24,09,06,14.80
2006,09,24,09,07,14.80
2006,09,24,09,08,14.80
2006,09,24,09,09,14.80
2006,09,24,09,10,14.70
2006,09,24,09,11,14.70
2006,09,24,09,12,14.70
2006,09,24,09,13,14.70
2006,09,24,09,14,14.70
2006,09,24,09,15,14.60
2006,09,24,09,16,14.60
2006,09,24,09,17,14.70
2006,09,24,09,18,14.70
2006,09,24,09,19,14.70
2006,09,24,09,20,14.80
2006,09,24,09,21,14.80
2006,09,24,09,22,14.90
2006,09,24,09,23,15.00
2006,09,24,09,24,15.10
2006,09,24,09,25,15.20
2006,09,24,09,26,15.30
2006,09,24,09,27,15.30
2006,09,24,09,28,15.40
2006,09,24,09,29,15.50
2006,09,24,09,30,15.60
2006,09,24,09,31,15.50
2006,09,24,09,32,15.50
2006,09,24,09,33,15.60
2006,09,24,09,34,15.60
2006,09,24,09,35,15.60
2006,09,24,09,36,15.70
2006,09,24,09,37,15.80
2006,09,24,09,38,15.80
2006,09,24,09,39,15.80
2006,09,24,09,40,15.80
2006,09,24,09,41,15.80
2006,09,24,09,42,15.80
2006,09,24,09,43,15.90
2006,09,24,09,44,15.90
2006,09,24,09,45,15.90
2006,09,24,09,46,16.10
2006,09,24,09,47,16.10
2006,09,24,09,48,16.10
2006,09,24,09,49,16.20
2006,09,24,09,50,16.30
2006,09,24,09,51,16.40
2006,09,24,09,52,16.40
2006,09,24,09,53,16.40
2006,09,24,09,54,16.40
2006,09,24,09,55,16.50
2006,09,24,09,56,16.60
2006,09,24,09,57,16.70
2006,09,24,09,58,16.70
2006,09,24,09,59,16.70
2006,09,24,10,00,16.80
2006,09,24,10,01,16.80
2006,09,24,10,02,16.80
2006,09,24,10,03,16.80
2006,09,24,10,04,16.90
2006,09,24,10,05,16.90
2006,09,24,10,06,16.80
2006,09,24,10,07,16.80
2006,09,24,10,08,16.80
2006,09,24,10,09,16.90
2006,09,24,10,10,16.90
2006,09,24,10,11,16.90
2006,09,24,10,12,16.90
2006,09,24,10,13,16.90
2006,09,24,10,14,17.00
2006,09,24,10,15,17.00
2006,09,24,10,16,17.00
2006,09,24,10,17,17.10
2006,09,24,10,18,17.20
2006,09,24,10,19,17.30
2006,09,24,10,20,17.30
2006,09,24,10,21,17.30
2006,09,24,10,22,17.30
2006,09,24,10,23,17.30
2006,09,24,10,24,17.30
2006,09,24,10,25,17.30
2006,09,24,10,26,17.30
2006,09,24,10,27,17.30
2006,09,24,10,28,17.30
2006,09,24,10,29,17.30
2006,09,24,10,30,17.30
2006,09,24,10,31,17.30
2006,09,24,10,32,17.40
2006,09,24,10,33,17.40
2006,09,24,10,34,17.40
2006,09,24,10,35,17.50
2006,09,24,10,36,17.50
2006,09,24,10,37,17.60
2006,09,24,10,38,17.70
2006,09,24,10,39,17.80
2006,09,24,10,40,17.90
2006,09,24,10,41,18.00
2006,09,24,10,42,18.10
2006,09,24,10,43,18.00
2006,09,24,10,44,17.90
2006,09,24,10,45,17.90
2006,09,24,10,46,18.00
2006,09,24,10,47,18.20
2006,09,24,10,48,18.20
2006,09,24,10,49,18.20
2006,09,24,10,50,18.20
2006,09,24,10,51,18.20
2006,09,24,10,52,18.20
2006,09,24,10,53,18.20
2006,09,24,10,54,18.20
2006,09,24,10,55,18.20
2006,09,24,10,56,18.20
2006,09,24,10,57,18.10
2006,09,24,10,58,18.10
2006,09,24,10,59,18.00
2006,09,24,11,00,17.90
2006,09,24,11,01,17.70
2006,09,24,11,02,17.70
2006,09,24,11,03,17.60
2006,09,24,11,04,17.60
2006,09,24,11,05,17.50
2006,09,24,11,06,17.40
2006,09,24,11,07,17.30
2006,09,24,11,08,17.30
2006,09,24,11,09,17.30
2006,09,24,11,10,17.20
2006,09,24,11,11,17.20
2006,09,24,11,12,17.30
2006,09,24,11,13,17.30
2006,09,24,11,14,17.40
2006,09,24,11,15,17.50
2006,09,24,11,16,17.60
2006,09,24,11,17,17.60
2006,09,24,11,18,17.60
2006,09,24,11,19,17.60
2006,09,24,11,20,17.60
2006,09,24,11,21,17.60
2006,09,24,11,22,17.50
2006,09,24,11,23,17.50
2006,09,24,11,24,17.60
2006,09,24,11,25,17.70
2006,09,24,11,26,17.70
2006,09,24,11,27,17.80
2006,09,24,11,28,17.80
2006,09,24,11,29,17.90
2006,09,24,11,30,17.90
2006,09,24,11,31,18.00
2006,09,24,11,32,18.20
2006,09,24,11,33,18.30
2006,09,24,11,34,18.50
2006,09,24,11,35,18.70
2006,09,24,11,36,18.80
2006,09,24,11,37,18.90
2006,09,24,11,38,18.90
2006,09,24,11,39,18.90
2006,09,24,11,40,18.90
2006,09,24,11,41,18.90
2006,09,24,11,42,18.80
2006,09,24,11,43,18.90
2006,09,24,11,44,18.80
2006,09,24,11,45,18.70
2006,09,24,11,46,18.60
2006,09,24,11,47,18.50
2006,09,24,11,48,18.50
2006,09,24,11,49,18.40
2006,09,24,11,50,18.30
2006,09,24,11,51,18.20
2006,09,24,11,52,18.20
2006,09,24,11,53,18.20
2006,09,24,11,54,18.20
2006,09,24,11,55,18.20
2006,09,24,11,56,18.20
2006,09,24,11,57,18.30
2006,09,24,11,58,18.40
2006,09,24,11,59,18.40
2006,09,24,12,00,18.40
2006,09,24,12,01,18.50
2006,09,24,12,02,18.60
2006,09,24,12,03,18.80
2006,09,24,12,04,19.00
2006,09,24,12,05,19.10
2006,09,24,12,06,19.20
2006,09,24,12,07,19.40
2006,09,24,12,08,19.50
2006,09,24,12,09,19.50
2006,09,24,12,10,19.60
2006,09,24,12,11,19.60
2006,09,24,12,12,19.70
2006,09,24,12,13,19.80
2006,09,24,12,14,19.80
2006,09,24,12,15,19.80
2006,09,24,12,16,19.70
2006,09,24,12,17,19.70
2006,09,24,12,18,19.70
2006,09,24,12,19,19.80
2006,09,24,12,20,19.90
2006,09,24,12,21,19.90
2006,09,24,12,22,20.00
2006,09,24,12,23,20.20
2006,09,24,12,24,20.20
2006,09,24,12,25,20.20
2006,09,24,12,26,20.20
2006,09,24,12,27,20.20
2006,09,24,12,28,20.20
2006,09,24,12,29,20.20
2006,09,24,12,30,20.20
2006,09,24,12,31,20.20
2006,09,24,12,32,20.20
2006,09,24,12,33,20.20
2006,09,24,12,34,20.20
2006,09,24,12,35,20.20
2006,09,24,12,36,20.30
2006,09,24,12,37,20.30
2006,09,24,12,38,20.30
2006,09,24,12,39,20.40
2006,09,24,12,40,20.40
2006,09,24,12,41,20.50
2006,09,24,12,42,20.50
2006,09,24,12,43,20.50
2006,09,24,12,44,20.50
2006,09,24,12,45,20.40
2006,09,24,12,46,20.30
2006,09,24,12,47,20.30
2006,09,24,12,48,20.30
2006,09,24,12,49,20.20
2006,09,24,12,50,20.20
2006,09,24,12,51,20.20
2006,09,24,12,52,20.20
2006,09,24,12,53,20.20
2006,09,24,12,54,20.20
2006,09,24,12,55,20.20
2006,09,24,12,56,20.20
2006,09,24,12,57,20.20
2006,09,24,12,58,20.20
2006,09,24,12,59,20.30
2006,09,24,13,00,20.30
2006,09,24,13,01,20.30
2006,09,24,13,02,20.30
2006,09,24,13,03,20.30
2006,09,24,13,04,20.20
2006,09,24,13,05,20.20
2006,09,24,13,06,20.10
2006,09,24,13,07,20.00
2006,09,24,13,08,19.90
2006,09,24,13,09,20.00
2006,09,24,13,10,20.10
2006,09,24,13,11,20.10
2006,09,24,13,12,20.20
2006,09,24,13,13,20.20
2006,09,24,13,14,20.30
2006,09,24,13,15,20.40
2006,09,24,13,16,20.40
2006,09,24,13,17,20.40
2006,09,24,13,18,20.30
2006,09,24,13,19,20.30
2006,09,24,13,20,20.30
2006,09,24,13,21,20.30
2006,09,24,13,22,20.30
2006,09,24,13,23,20.30
2006,09,24,13,24,20.40
2006,09,24,13,25,20.40
2006,09,24,13,26,20.40
2006,09,24,13,27,20.30
2006,09,24,13,28,20.30
2006,09,24,13,29,20.20
2006,09,24,13,30,20.30
2006,09,24,13,31,20.30
2006,09,24,13,32,20.30
2006,09,24,13,33,20.20
2006,09,24,13,34,20.20
2006,09,24,13,35,20.10
2006,09,24,13,36,20.10
2006,09,24,13,37,20.20
2006,09,24,13,38,20.20
2006,09,24,13,39,20.30
2006,09,24,13,40,20.40
2006,09,24,13,41,20.40
2006,09,24,13,42,20.50
2006,09,24,13,43,20.50
2006,09,24,13,44,20.40
2006,09,24,13,45,20.30
2006,09,24,13,46,20.20
2006,09,24,13,47,20.10
2006,09,24,13,48,20.10
2006,09,24,13,49,20.10
2006,09,24,13,50,20.10
2006,09,24,13,51,20.20
2006,09,24,13,52,20.20
2006,09,24,13,53,20.10
2006,09,24,13,54,19.90
2006,09,24,13,55,19.90
2006,09,24,13,56,20.10
2006,09,24,13,57,20.20
2006,09,24,13,58,20.20
2006,09,24,13,59,20.30
2006,09,24,14,00,20.30
2006,09,24,14,01,20.40
2006,09,24,14,02,20.40
2006,09,24,14,03,20.50
2006,09,24,14,04,20.40
2006,09,24,14,05,20.40
2006,09,24,14,06,20.40
2006,09,24,14,07,20.40
2006,09,24,14,08,20.40
2006,09,24,14,09,20.40
2006,09,24,14,10,20.30
2006,09,24,14,11,20.30
2006,09,24,14,12,20.30
2006,09,24,14,13,20.20
2006,09,24,14,14,20.20
2006,09,24,14,15,20.20
2006,09,24,14,16,20.30
2006,09,24,14,17,20.40
2006,09,24,14,18,20.50
2006,09,24,14,19,20.60
2006,09,24,14,20,20.60
2006,09,24,14,21,20.50
2006,09,24,14,22,20.60
2006,09,24,14,23,20.70
2006,09,24,14,24,20.80
2006,09,24,14,25,21.00
2006,09,24,14,26,21.10
2006,09,24,14,27,21.10
2006,09,24,14,28,21.20
2006,09,24,14,29,21.20
2006,09,24,14,30,21.30
2006,09,24,14,31,21.30
2006,09,24,14,32,21.30
2006,09,24,14,33,21.30
2006,09,24,14,34,21.40
2006,09,24,14,35,21.50
2006,09,24,14,36,21.60
2006,09,24,14,37,21.60
2006,09,24,14,38,21.60
2006,09,24,14,39,21.60
2006,09,24,14,40,21.60
2006,09,24,14,41,21.70
2006,09,24,14,42,21.70
2006,09,24,14,43,21.70
2006,09,24,14,44,21.70
2006,09,24,14,45,21.70
2006,09,24,14,46,21.70
2006,09,24,14,47,21.70
2006,09,24,14,48,21.60
2006,09,24,14,49,21.60
2006,09,24,14,50,21.60
2006,09,24,14,51,21.50
2006,09,24,14,52,21.30
2006,09,24,14,53,21.20
2006,09,24,14,54,21.20
2006,09,24,14,55,21.20
2006,09,24,14,56,21.10
2006,09,24,14,57,21.10
2006,09,24,14,58,21.10
2006,09,24,14,59,21.20
2006,09,24,15,00,21.30
2006,09,24,15,01,21.40
2006,09,24,15,02,21.50
2006,09,24,15,03,21.60
2006,09,24,15,04,21.60
2006,09,24,15,05,21.70
2006,09,24,15,06,21.70
2006,09,24,15,07,21.70
2006,09,24,15,08,21.70
2006,09,24,15,09,21.60
2006,09,24,15,10,21.60
2006,09,24,15,11,21.60
2006,09,24,15,12,21.40
2006,09,24,15,13,21.40
2006,09,24,15,14,21.40
2006,09,24,15,15,21.40
2006,09,24,15,16,21.40
2006,09,24,15,17,21.40
2006,09,24,15,18,21.30
2006,09,24,15,19,21.20
2006,09,24,15,20,21.20
2006,09,24,15,21,21.30
2006,09,24,15,22,21.30
2006,09,24,15,23,21.30
2006,09,24,15,24,21.30
2006,09,24,15,25,21.30
2006,09,24,15,26,21.30
2006,09,24,15,27,21.30
2006,09,24,15,28,21.30
2006,09,24,15,29,21.30
2006,09,24,15,30,21.20
2006,09,24,15,31,21.20
2006,09,24,15,32,21.30
2006,09,24,15,33,21.30
2006,09,24,15,34,21.30
2006,09,24,15,35,21.30
2006,09,24,15,36,21.30
2006,09,24,15,37,21.40
2006,09,24,15,38,21.50
2006,09,24,15,39,21.60
2006,09,24,15,40,21.50
2006,09,24,15,41,21.40
2006,09,24,15,42,21.30
2006,09,24,15,43,21.30
2006,09,24,15,44,21.30
2006,09,24,15,45,21.30
2006,09,24,15,46,21.30
2006,09,24,15,47,21.30
2006,09,24,15,48,21.30
2006,09,24,15,49,21.30
2006,09,24,15,50,21.30
2006,09,24,15,51,21.30
2006,09,24,15,52,21.30
2006,09,24,15,53,21.30
2006,09,24,15,54,21.30
2006,09,24,15,55,21.30
2006,09,24,15,56,21.30
2006,09,24,15,57,21.30
2006,09,24,15,58,21.40
2006,09,24,15,59,21.40
2006,09,24,16,00,21.60
2006,09,24,16,01,21.60
2006,09,24,16,02,21.60
2006,09,24,16,03,21.60
2006,09,24,16,04,21.60
2006,09,24,16,05,21.60
2006,09,24,16,06,21.60
2006,09,24,16,07,21.70
2006,09,24,16,08,21.70
2006,09,24,16,09,21.70
2006,09,24,16,10,21.60
2006,09,24,16,11,21.60
2006,09,24,16,12,21.60
2006,09,24,16,13,21.60
2006,09,24,16,14,21.60
2006,09,24,16,15,21.60
2006,09,24,16,16,21.60
2006,09,24,16,17,21.60
2006,09,24,16,18,21.70
2006,09,24,16,19,21.80
2006,09,24,16,20,21.80
2006,09,24,16,21,21.90
2006,09,24,16,22,21.90
2006,09,24,16,23,22.00
2006,09,24,16,24,22.10
2006,09,24,16,25,22.10
2006,09,24,16,26,22.00
2006,09,24,16,27,21.90
2006,09,24,16,28,21.90
2006,09,24,16,29,21.90
2006,09,24,16,30,21.90
2006,09,24,16,31,21.90
2006,09,24,16,32,22.00
2006,09,24,16,33,22.00
2006,09,24,16,34,21.90
2006,09,24,16,35,21.90
2006,09,24,16,36,21.90
2006,09,24,16,37,21.90
2006,09,24,16,38,21.90
2006,09,24,16,39,21.80
2006,09,24,16,40,21.80
2006,09,24,16,41,21.80
2006,09,24,16,42,21.70
2006,09,24,16,43,21.60
2006,09,24,16,44,21.70
2006,09,24,16,45,21.70
2006,09,24,16,46,21.60
2006,09,24,16,47,21.60
2006,09,24,16,48,21.60
2006,09,24,16,49,21.50
2006,09,24,16,50,21.40
2006,09,24,16,51,21.40
2006,09,24,16,52,21.30
2006,09,24,16,53,21.30
2006,09,24,16,54,21.30
2006,09,24,16,55,21.30
2006,09,24,16,56,21.30
2006,09,24,16,57,21.30
2006,09,24,16,58,21.20
2006,09,24,16,59,21.10
2006,09,24,17,00,21.10
2006,09,24,17,01,21.10
2006,09,24,17,02,21.10
2006,09,24,17,03,21.10
2006,09,24,17,04,21.10
2006,09,24,17,05,21.10
2006,09,24,17,06,21.20
2006,09,24,17,07,21.20
2006,09,24,17,08,21.20
2006,09,24,17,09,21.20
2006,09,24,17,10,21.20
2006,09,24,17,11,21.30
2006,09,24,17,12,21.30
2006,09,24,17,13,21.30
2006,09,24,17,14,21.20
2006,09,24,17,15,21.20
2006,09,24,17,16,21.10
2006,09,24,17,17,21.00
2006,09,24,17,18,20.90
2006,09,24,17,19,20.90
2006,09,24,17,20,20.90
2006,09,24,17,21,20.80
2006,09,24,17,22,20.80
2006,09,24,17,23,20.80
2006,09,24,17,24,20.80
2006,09,24,17,25,20.80
2006,09,24,17,26,20.70
2006,09,24,17,27,20.70
2006,09,24,17,28,20.60
2006,09,24,17,29,20.60
2006,09,24,17,30,20.60
2006,09,24,17,31,20.70
2006,09,24,17,32,20.70
2006,09,24,17,33,20.70
2006,09,24,17,34,20.70
2006,09,24,17,35,20.70
2006,09,24,17,36,20.70